Weather History for Burlington, VT

Change the Weather History Date:

Saturday, December 14, 2013

  Actual Average Record
Temperature  
Mean Temperature 5 °F 26 °F  
Max Temperature 11 °F 34 °F 63 °F (1901)
Min Temperature -2 °F 19 °F -11 °F (1933)
Degree Days  
Heating Degree Days 60 39  
Month to date heating degree days 521 501  
Since 1 July heating degree days 2014 2046  
Cooling Degree Days 0 0  
Month to date cooling degree days 0 0  
Year to date cooling degree days 662 491  
Moisture  
Dew Point -2 °F    
Average Humidity 64    
Maximum Humidity 83    
Minimum Humidity 45    
Precipitation  
Precipitation 0.15 in 0.07 in 1.31 in (1977)
Month to date precipitation 0.67 1.18  
Year to date precipitation 43.12 35.62  
Snow  
Snow 1.60 in 0.50 in 11.10 in (1915)
Month to date snowfall 3.6 7.0  
Since 1 July snowfall 10.0 12.4  
Snow Depth 1.00 in    
Sea Level Pressure  
Sea Level Pressure 30.45 in    
Wind  
Wind Speed 3 mph (ESE)    
Max Wind Speed 8 mph    
Max Gust Speed 11 mph    
Visibility 6 miles    
Events Snow    
T = Trace of Precipitation, MM = Missing Value Source: NWS Daily Summary

Daily Weather History Graph

Daily Weather History Graph

Search for Another Location

Airport:

Trip Planner

Search our weather history database for the weather conditions in past years. The results will help you decide how hot, cold, wet, or windy it might be!

Date:

Astronomy

Dec. 14, 2013 Rise Set
Actual Time 7:21 AM EST 4:13 PM EST
Civil Twilight 6:48 AM EST 4:46 PM EST
Nautical Twilight 6:11 AM EST 5:23 PM EST
Astronomical Twilight 5:35 AM EST 5:58 PM EST
Moon 2:37 PM EST (12/14) 4:35 AM EST (12/14)
Length of Visible Light 9h 58m
Length of Day
8h 51m
Waxing Gibbous, 93% of the Moon is Illuminated
Dec 14
Waxing Gibbous
Dec 17
Full
Dec 25
Last Quarter
Jan 1
New
Jan 7
First Quarter

Hourly Weather History & Observations

Time (EST) Temp. Windchill Dew Point Humidity Pressure Visibility Wind Dir Wind Speed Gust Speed Precip Events Conditions
12:54 AM 1.9 °F -5.6 °F -7.1 °F 66% 30.51 in 10.0 mi ENE 3.5 mph - N/A   Mostly Cloudy
1:54 AM 1.9 °F -7.6 °F -8.0 °F 63% 30.53 in 10.0 mi NE 4.6 mph - N/A   Overcast
2:54 AM 1.0 °F -10.3 °F -9.0 °F 63% 30.55 in 10.0 mi NNE 5.8 mph - N/A   Overcast
3:22 AM -0.0 °F -11.6 °F -9.0 °F 66% 30.52 in 10.0 mi NNE 5.8 mph - N/A   Scattered Clouds
3:54 AM -0.0 °F -7.9 °F -9.0 °F 66% 30.56 in 10.0 mi ENE 3.5 mph - N/A   Clear
4:54 AM -0.0 °F -9.9 °F -8.0 °F 69% 30.58 in 10.0 mi ENE 4.6 mph - N/A   Mostly Cloudy
5:54 AM -0.9 °F -14.1 °F -9.0 °F 69% 30.60 in 10.0 mi ENE 6.9 mph - N/A   Mostly Cloudy
6:06 AM -0.9 °F -11.0 °F -8.0 °F 72% 30.57 in 10.0 mi East 4.6 mph - N/A   Scattered Clouds
6:27 AM -0.9 °F -14.1 °F -8.0 °F 72% 30.58 in 10.0 mi ENE 6.9 mph - N/A   Mostly Cloudy
6:49 AM -0.4 °F -12.0 °F -7.6 °F 72% 30.58 in 10.0 mi East 5.8 mph - N/A   Scattered Clouds
6:54 AM -0.9 °F -14.1 °F -8.0 °F 72% 30.62 in 10.0 mi East 6.9 mph - N/A   Scattered Clouds
7:54 AM -0.9 °F -11.0 °F -8.0 °F 72% 30.63 in 10.0 mi East 4.6 mph - N/A   Scattered Clouds
8:54 AM -0.0 °F -9.9 °F -8.0 °F 69% 30.63 in 10.0 mi East 4.6 mph - N/A   Scattered Clouds
9:54 AM 3.0 °F -4.4 °F -8.0 °F 60% 30.65 in 10.0 mi Variable 3.5 mph - N/A   Partly Cloudy
10:54 AM 3.9 °F - -9.9 °F 53% 30.65 in 10.0 mi Calm Calm - N/A   Partly Cloudy
11:54 AM 6.1 °F -0.9 °F -11.0 °F 45% 30.62 in 10.0 mi Variable 3.5 mph - N/A   Partly Cloudy
12:54 PM 7.0 °F 0.1 °F -9.9 °F 46% 30.58 in 10.0 mi North 3.5 mph - N/A   Overcast
1:54 PM 8.1 °F - -9.0 °F 46% 30.56 in 10.0 mi Calm Calm - N/A   Overcast
2:54 PM 9.0 °F 2.4 °F -7.1 °F 48% 30.53 in 10.0 mi NNW 3.5 mph - N/A   Overcast
3:54 PM 9.0 °F - -8.0 °F 46% 30.52 in 10.0 mi Calm Calm - N/A   Overcast
4:54 PM 9.0 °F - -6.0 °F 51% 30.48 in 10.0 mi Calm Calm - N/A   Overcast
5:54 PM 10.0 °F 1.8 °F -4.0 °F 53% 30.42 in 10.0 mi NE 4.6 mph - N/A   Overcast
6:07 PM 10.0 °F 3.6 °F -4.0 °F 53% 30.39 in 10.0 mi Variable 3.5 mph - 0.00 in Snow Light Snow
6:33 PM 10.0 °F 0.4 °F 1.9 °F 70% 30.39 in 2.5 mi SSE 5.8 mph - 0.00 in Snow Light Snow
6:42 PM 10.0 °F -0.9 °F 3.0 °F 73% 30.38 in 1.5 mi SE 6.9 mph - 0.01 in Snow Light Snow
6:51 PM 8.6 °F 0.1 °F 3.2 °F 79% 30.38 in 1.2 mi ESE 4.6 mph - 0.01 in Snow Light Snow
6:54 PM 9.0 °F 0.6 °F 3.9 °F 80% 30.41 in 1.2 mi SE 4.6 mph - 0.01 in Snow Light Snow
7:03 PM 9.0 °F 0.6 °F 5.0 °F 84% 30.38 in 1.0 mi SSE 4.6 mph - 0.01 in Snow Light Snow
7:54 PM 10.0 °F 3.6 °F 5.0 °F 80% 30.38 in 1.2 mi South 3.5 mph - 0.04 in Snow Light Snow
8:07 PM 10.0 °F 1.8 °F 5.0 °F 80% 30.34 in 1.8 mi South 4.6 mph - 0.00 in Snow Light Snow
8:23 PM 10.0 °F 3.6 °F 5.0 °F 80% 30.33 in 1.2 mi South 3.5 mph - 0.00 in Snow Light Snow
8:43 PM 10.0 °F 3.6 °F 5.0 °F 80% 30.32 in 1.5 mi SSE 3.5 mph - 0.01 in Snow Light Snow
8:54 PM 10.0 °F 3.6 °F 5.0 °F 80% 30.34 in 1.5 mi SSE 3.5 mph - 0.02 in Snow Light Snow
9:04 PM 10.0 °F - 5.0 °F 80% 30.30 in 1.0 mi Calm Calm - 0.00 in Snow Light Snow
9:30 PM 10.0 °F 3.6 °F 5.0 °F 80% 30.28 in 1.5 mi SE 3.5 mph - 0.02 in Snow Light Snow
9:41 PM 10.0 °F - 6.1 °F 84% 30.26 in 1.2 mi Calm Calm - 0.02 in Snow Light Snow
9:54 PM 10.0 °F - 6.1 °F 84% 30.28 in 1.5 mi Calm Calm - 0.03 in Snow Light Snow
10:18 PM 10.0 °F - 5.0 °F 80% 30.23 in 2.0 mi Calm Calm - 0.00 in Snow Light Snow
10:26 PM 10.0 °F 3.6 °F 6.1 °F 84% 30.22 in 1.5 mi WSW 3.5 mph - 0.01 in Snow Light Snow
10:37 PM 10.0 °F 1.8 °F 6.1 °F 84% 30.22 in 1.2 mi SW 4.6 mph - 0.01 in Snow Light Snow
10:44 PM 10.0 °F 1.8 °F 6.1 °F 84% 30.21 in 1.2 mi SW 4.6 mph - 0.02 in Snow Light Snow
10:54 PM 10.0 °F 1.8 °F 6.1 °F 84% 30.23 in 1.0 mi SW 4.6 mph - 0.02 in Snow Light Snow
11:50 PM 10.4 °F - 6.8 °F 85% 30.13 in 1.5 mi Calm Calm - 0.03 in Snow Light Snow
11:54 PM 10.9 °F - 6.1 °F 81% 30.15 in 1.8 mi Calm Calm - 0.03 in Snow Light Snow